Home > Weather > Changchun > Past weeks

Flag for China Weather for the Past 2 Weeks in Changchun, Jilin, China

Now
19 °F

Passing clouds.


Feels Like: 11 °F
Forecast: 12 / 29 °F
Wind: 6 mph from West

Location: Changchun Airport

Current Time: Feb 6, 2016 at 6:02:41 PM

Latest Report: Feb 6, 2016 at 5:00 PM


Visibility: N/A

Pressure: 30.21 "Hg

Humidity: 45%

Dew point: 1 °F

Location of ChangchunLocation

Historic Weather in Changchun — Graph

°F

Changchun Temperature Yesterday

Maximum temperature yesterday: 21 °F (at 12:00 PM)
Minimum temperature yesterday: 1 °F (at 7:00 AM)
Average temperature yesterday: 12 °F

High & Low Weather Summary for the Past Weeks

 TemperatureHumidityPressure
High27 °F (Feb 3, 1:00 PM)72% (Feb 6, 4:00 AM)30.69 "Hg (Feb 6, 4:00 AM)
Low-22 °F (Jan 23, 7:00 AM)28% (Jan 29, 1:00 PM)30.09 "Hg (Jan 25, 2:00 PM)
Average4 °F52%30.34 "Hg
* Reported Jan 22 5:00 PM — Feb 6 5:00 PM, Changchun, Weather by CustomWeather, © 2016

Note: Actual official high and low records may vary slightly from our data, if they occured in-between our weather recording intervals... More about our weather records

Advertising

Changchun Weather History for the Previous 24 Hours

 ConditionsComfort  
Time TempWeatherWind HumidityBarometerVisibility
5:00 PM
Sat, Feb 6
19 °FPassing clouds.6 mph45%30.21 "HgN/A
4:00 PM23 °FPassing clouds.8 mph39%30.21 "HgN/A
3:00 PM25 °FPassing clouds.10 mph33%30.21 "HgN/A
2:00 PM25 °FPassing clouds.8 mph33%30.21 "HgN/A
1:00 PM25 °FPassing clouds.10 mph33%30.21 "HgN/A
12:00 PM23 °FPassing clouds.8 mph36%30.24 "HgN/A
11:00 AM21 °FClear.6 mph42%30.24 "Hg4 mi
10:00 AM18 °FClear.8 mph49%30.27 "Hg3 mi
9:00 AM10 °FIce fog.6 mph67%30.27 "Hg1 mi
8:00 AM3 °FClear.6 mph72%30.27 "Hg1 mi
7:00 AM0 °FClear.3 mph71%30.24 "Hg2 mi
6:00 AM1 °FClear.1 mph65%30.24 "Hg10 mi
5:00 AM0 °FClear.1 mph71%30.24 "Hg10 mi
4:00 AM3 °FClear.1 mph72%30.21 "Hg10 mi
3:00 AM7 °FClear.3 mph66%30.21 "Hg10 mi
2:00 AM5 °FClear.6 mph66%30.21 "Hg10 mi
1:00 AM7 °FClear.3 mph66%30.21 "Hg10 mi
12:00 AM7 °FClear.1 mph66%30.21 "Hg10 mi
11:00 PM
Fri, Feb 5
9 °FClear.3 mph61%30.24 "Hg10 mi
10:00 PM10 °FClear.3 mph56%30.24 "Hg10 mi
9:00 PM10 °FClear.3 mph56%30.24 "Hg10 mi
8:00 PM10 °FClear.3 mph56%30.24 "Hg10 mi
7:00 PM10 °FClear.3 mph61%30.24 "Hg10 mi
6:00 PM12 °FClear.3 mph57%30.21 "Hg10 mi
Weather by CustomWeather, © 2016

See weather overviewHow to use our weather pages